sat.trackr.live / text

‹ back to catalog

STARLINK-35357

NORAD 65799 · 2025-218J

PAYLOAD ACTIVE UNKNOWN

§ Identity

Operator
Country
US
Launch date
2025-09-26
Launch site
AFWTR
Launch vehicle
Mass (kg)
RCS (m²)

Purposes: comms

External: N2YO · Heavens-Above · Gunter

§ Orbital elements

Epoch: 2026-09-20T12:43:15.343680Z

Period
93.91 min
Inclination
97.2845°
Eccentricity
0.0001602
Mean motion
15.33450429 rev/d
Perigee alt
464.4 km
Apogee alt
466.6 km
Semi-major
6,843.7 km
B*
3.4947e-4
RAAN
120.8356°
Arg perigee
92.1737°
Mean anomaly
267.9689°
Rev number
5,433

§ Raw data

STARLINK-353571 65799U 25218J   26263.53003870  .00011226  00000+0  34947-3 0  99902 65799  97.2845 120.8356 0001602  92.1737 267.9689 15.33450429 54334

JSON: /api/v1/satellites/65799 · /tle

For live sub-satellite position, see the globe view (requires WebGL).

§ Visibility from observer

Set your observer location to see the next 7 days of passes ≥ 10°. The values pass through the URL so the page stays shareable.

No JS? Fill the form by hand. The geolocation button needs JavaScript.